Location: Clarion
(42.7316°N, 93.7330°W)
Time: 08:56:59
(UTC+00:00)

Cosmos 1461 - Pass Details

Date: 22 April 2026
Orbit: 423 x 480 km, 65.0° (Epoch: 17 May)

Event Time Altitude Azimuth Distance (km) Brightness Sun altitude
Exits shadow 09:54:13 32° 241° (WSW) 856 3.2 -15.4°
Maximum altitude 09:55:41 57° 306° (NW) 578 2.8 -15.2°
Drops below altitude 10° 09:59:22 10° 26° (NNE) 1,666 6.2 -14.6°
Sets 10:01:32 0° 30° (NNE) 2,544 7.4 -14.3°
